Location: Namasale
(1.5000°N, 32.6167°E)
Time: 13:39:22
(UTC+00:00)

COSMOS 2406 - Pass Details

Date: 09 April 2020
Orbit: 842 x 865 km, 71.0° (Epoch: 04 June)

Event Time Altitude Azimuth Distance (km) Brightness Sun altitude
Rises 17:11:21 0° 179° (S) 3,395 6.3 -19.7°
Reaches altitude 10° 17:13:58 10° 171° (S) 2,458 5.4 -20.3°
Enters shadow 17:16:44 26° 150° (SSE) 1,617 4.3 -21.0°
